Regional Weather Roundup
Issued by NWS Upton, NY

Current Version | Previous Version | Graphics & Text | Print | Product List | Glossary Off
Versions: 1 2 3 4 5 6 7 8 9 10 11 12 13 14 15 16 17 18 19 20 21 22 23 24 25 26 27 28 29 30 31 32 33 34 35 36 37 38 39 40 41 42 43 44 45 46 47 48 49 50

000
ASUS41 KOKX 230908
RWROKX

REGIONAL WEATHER ROUNDUP
NATIONAL WEATHER SERVICE NEW YORK NY
400 AM EST THU FEB 23 2017

NOTE: "FAIR" INDICATES FEW OR NO CLOUDS BELOW 12,000 FEET WITH NO
SIGNIFICANT WEATHER AND/OR OBSTRUCTIONS TO VISIBILITY.

NYZ071-072-176-178-NJZ106-104-231000-
NEW YORK CITY METRO AREA

CITY           SKY/WX    TMP DP  RH WIND       PRES   REMARKS
Central Park   CLEAR     47  41  80 NE3       29.90S
Wall St Helipt NOT AVBL
LaGuardia APRT PTCLDY    43  38  82 NE6       29.88S
Kennedy INTL   PTCLDY    42  40  92 SE3       29.89S
Breezy Point     N/A     43 N/A N/A SE5         N/A
Newark/Liberty PTCLDY    46  41  82 CALM      29.88S
Teterboro      CLEAR     43  38  82 CALM      29.87S
$$

NYZ177-179-078>081-231000-
LONG ISLAND NEW YORK

CITY           SKY/WX    TMP DP  RH WIND       PRES   REMARKS
Jones Beach      N/A     43 N/A N/A S6          N/A
Matinecock PT  NOT AVBL
Farmingdale    FOG       37  37 100 CALM      29.89S VSB 1/2
MacArthur/ISP  CLOUDY    37  37 100 SE3       29.89R FOG
Shirley        FOG       37  37 100 CALM      29.90S VSB 1/2
Westhampton    FOG       35  34  96 CALM      29.91S VSB 1/2
Southampton    NOT AVBL
Bridgehampton  NOT AVBL
East Hampton   FOG       38  37  99 CALM      29.89F VSB 1/2
Montauk          N/A     40  40 100 CALM      29.91S
$$

NYZ052-065-067-231000-
HUDSON VALLEY

CITY           SKY/WX    TMP DP  RH WIND       PRES   REMARKS
White Plains   CLEAR     38  35  89 CALM      29.86S
Newburgh       NOT AVBL
Montgomery     PTCLDY    33  31  92 S3        29.84F
Poughkeepsie   PTCLDY    36  34  92 CALM      29.85F
Albany         CLOUDY    46  37  71 S5        29.84S
$$

NJZ001-105-106-008-010-013-015-019>022-104-231000-
NEW JERSEY

CITY           SKY/WX    TMP DP  RH WIND       PRES   REMARKS
Newark/Liberty PTCLDY    46  41  82 CALM      29.88S
Teterboro      CLEAR     43  38  82 CALM      29.87S
Caldwell       CLEAR     38  35  89 CALM      29.88S
Somerville     CLEAR     34  31  88 CALM      29.86S
Linden         NOT AVBL
Sussex         CLEAR     32  31  96 CALM      29.86F
Andover          N/A     33  31  92 CALM      29.86F
Trenton        CLEAR     39  39 100 CALM      29.87F FOG
Millville      FOG       46  46 100 CALM      29.89F VSB 1/4
Atlantic City  FOG       46  44  93 CALM      29.90F VSB 1/4
Wrightstown    FOG       48  46  93 SW8       29.86F VSB 1/2
Toms River     LGT RAIN  47  46  97 SW5       29.90S VSB 1/2
Belmar         LGT RAIN  45  44  97 S7        29.90R VSB 1/2
$$

PAZ047>061-062-071-231000-
EASTERN PENNSYLVANIA

CITY           SKY/WX    TMP DP  RH WIND       PRES   REMARKS
Philadelphia   FOG       48  48 100 S5        29.90S VSB 1/4
Allentown      CLEAR     36  33  89 CALM      29.86F
Scranton       CLEAR     43  39  86 E3        29.82F
$$

CTZ002-004>006-009-010-012-RIZ004-006-007-MAZ004-011-015-231000-
SOUTHERN NEW ENGLAND
 IN CT

CITY           SKY/WX    TMP DP  RH WIND       PRES   REMARKS
Bradley INTL   CLOUDY    38  35  89 CALM      29.87S
Hartford       CLOUDY    39  36  89 CALM      29.87F
Danbury        CLEAR     34  32  92 CALM      29.88S
Wtrbury/Oxford PTCLDY    39  34  81 CALM      29.88R
Bridgeport     PTCLDY    39  35  86 E3        29.88F
Meriden        MOCLDY    38  34  85 CALM      29.88F
New Haven      FOG       37  36  96 CALM      29.89S VSB 1/4
Chester          N/A     39  37  93 CALM      29.87F
Groton         FOG       37  36  96 CALM      29.89S VSB 1/4
Wilimantic     CLOUDY    35  33  92 CALM      29.89F

 IN RI

CITY           SKY/WX    TMP DP  RH WIND       PRES   REMARKS
Providence     PTCLDY    37  35  92 CALM      29.88F
Block Island   NOT AVBL
Westerly       FOG       36  33  89 CALM      29.90F VSB 1/4
 IN MA

CITY           SKY/WX    TMP DP  RH WIND       PRES   REMARKS
Boston         MOCLDY    41  37  86 CALM      29.87S
Worcester      CLOUDY    42  35  76 W10       29.84F
Westfield      CLOUDY    36  33  89 CALM      29.87S
Provincetown   CLOUDY    38  38 100 S7        29.89F FOG     WCI  33
Nantucket      FOG       43  41  93 SW7       29.91R VSB 3/4
$$

ANZ330-335-338-340-345-350-353-355-231000-
COASTAL MARINE OBSERVATIONS


STATION/POSITION TIME  SKY/WX   TEMP    WIND        PRES    VSBY  WAVE
                                AIR SEA DIR/SP/G                  HT/PER
                 (UTC)          (F)     (DEG/KT/KT) (MB)    (MI)  (FT/S)
NY HARB ENTRANCE 0750            44 42  200/  6/  6 1011.8          2/ 8
20 S FIRE ISLAND 0850            45 43  210/  6/  6 1012.3          3/11
GREAT SOUTH BAY  NOT AVBL
23 SSW MONTAUK P 0750            45 46              1012.8          3/11
15 E BARNEGAT LI 0830               42                N/A           3/10
HUDSON CANYON    0750               49              1012.8          4/10
KINGS POINT      0836            39 39              1011.6
EXECUTION ROCKS  NOT AVBL
CENTRAL LI SOUND 0800            38      20/  2/  4   N/A           0
EASTERN LI SOUND NOT AVBL
ROBBINS REEF     0842            47     160/  4/  5 1011.9
$$


>>>>>>>>>>>>>>>>>>>>>>>>>>>> KEY <<<<<<<<<<<<<<<<<<<<<<<<<<<
>                                                          <
>     SKY/WX - Sky Condition/Present Weather               <
>     TMP    - Temperature in Fahrenheit                   <
>     DP     - Dew Point in Fahrenheit                     <
>     RH     - Relative Humidity in Percent                <
>     WIND   - Direction (from) and Speed in MPH           <
>     PRES   - Mean Sea Level Pressure (inches of Hg)      <
>     WCI    - Wind Chill Index                            <
>     VSB    - VISIBILITY IN MILES                         <
>     HX     - HEAT INDEX                                  <
>     TC     - TEMPERATURE IN CELSIUS                      <
>     VRB    - VARIABLE WIND DIRECTION                     <
>                                                          <
>>>>>>>>>>>>>>>>>>>>>>>>>>>> KEY <<<<<<<<<<<<<<<<<<<<<<<<<<<



USA.gov is the U.S. government's official web portal to all federal, state and local government web resources and services.